CHINASAT 16 (SJ-13) (42662 NORAD) Tracking and Keplerian Element Data

This shows tracking and keplerian element data for the satellite.

Feedback or suggestion? Click here.




ElementValue
Catalog42662
NameCHINASAT 16 (SJ-13)
Epoch Orbit2630
Epoch Day158.97543279
Epoch Year2024
RAAN96.9116
Inclination0.0702
Eccentricity0.0003293
Argument of Perigee153.4362
Mean Anonmoly107.2019
Mean Motion1.00270455
Decay Rate-3.51E-06
L11 42662U 17018A 24158.97543279 -.00000351 00000+0 00000+0 0 9991
L22 42662 0.0702 96.9116 0003293 153.4362 107.2019 1.00270455 26309



Live tracking and technical data element details for CHINASAT 16 (SJ-13) (NORAD 42662). CHINASAT 16 (SJ-13) can be tracked NOW for your location showing map with azimuth and elevation plus other details from your city location.







IsCatalogInMostPopularTable: catalog: 42662, numindb: 673
Update: records affected: 1



GetName: 42662 CHINASAT 16 (SJ-13)

Hit Count: updated at: Fri, 14 Jun 2024 18:24:47 GMT